Temperature
20 20 19 19 19 19 19 18 18 18 18 18 18 18 18 17 17 17 17 17 17 17 17 17 17 16 16 16 16 16 16 16 16 16 16 16 16 15 15 15 15 15 15
20 20 19 19 19 19 19 18 18 18 18 18 17 17 17 17 17 17 17 17 17 17 16 16 16 16 16 16 16 16 16 16 16 16 15 15 15 15 15 15 15 14 15
20 19 19 19 19 18 18 18 18 18 18 17 17 17 17 17 17 17 17 17 16 16 16 16 16 16 16 16 16 16 16 16 16 15 15 15 15 15 15 15 14 14 14
20 19 19 19 18 18 18 18 18 18 17 17 17 17 17 17 17 17 17 16 16 16 16 16 16 16 15 15 15 15 15 15 15 15 15 15 15 15 14 14 14 14 14
20 19 19 19 18 18 18 18 18 17 17 17 17 17 16 16 16 16 16 16 16 16 16 15 15 15 15 15 15 15 15 15 15 15 14 14 14 14 14 14 14 14 14
20 19 19 18 18 18 18 18 17 17 17 17 16 16 16 16 16 16 16 16 16 15 15 15 15 15 15 15 15 15 15 15 15 14 14 14 14 14 14 14 14 14 14
19 19 18 18 18 18 18 17 17 17 17 16 16 16 16 16 16 16 16 16 15 15 15 15 15 15 15 15 15 15 14 14 14 14 14 14 14 14 14 14 14 14 14
19 18 18 18 18 18 17 17 17 17 16 16 16 16 16 16 16 16 15 15 15 15 15 15 15 15 15 15 14 14 14 14 14 14 14 14 14 14 14 13 13 13 14
18 18 18 18 17 17 17 17 16 16 16 16 16 16 16 16 16 15 15 15 15 15 15 15 15 15 15 14 14 14 14 14 14 14 14 14 14 14 13 13 13 13 13
18 18 17 17 17 17 17 16 16 16 16 16 16 16 15 15 15 15 15 15 15 15 15 15 14 14 14 14 14 14 14 14 14 13 14 14 13 13 13 13 13 13 13
17 17 17 17 17 16 16 16 16 16 15 15 15 15 16 15 15 15 15 15 14 14 14 14 14 14 14 14 14 14 14 14 13 13 13 13 13 13 13 13 13 13 12
17 17 16 16 16 16 16 16 15 15 15 15 15 15 15 15 15 15 15 14 14 14 14 14 14 14 14 14 14 14 13 13 13 13 13 13 13 13 13 13 13 13 13
16 16 16 16 16 16 15 15 15 15 15 15 15 15 15 15 15 15 14 14 14 14 14 14 14 14 14 14 14 13 13 13 13 13 13 13 13 13 13 13 12 12 12
16 15 15 15 15 15 15 15 14 14 14 14 14 14 14 14 14 14 14 14 14 13 13 13 13 13 13 13 13 13 13 13 13 13 13 13 12 12 12 12 12 12 12
15 15 15 15 15 15 15 15 14 14 14 14 14 14 14 14 14 13 13 13 13 13 13 13 13 13 13 13 13 13 13 13 12 12 12 12 12 12 12 12 12 12 12
15 15 15 15 15 15 15 15 15 14 14 14 14 14 14 14 13 13 13 13 13 13 13 13 13 13 13 13 12 12 12 12 12 12 12 12 12 12 12 12 12 12 12
14 14 14 14 14 14 14 14 14 14 14 14 14 14 13 13 13 13 13 13 13 13 13 12 12 12 13 12 12 12 12 12 12 12 12 12 12 12 12 12 12 11 11
14 14 14 14 14 14 14 14 14 14 14 14 14 13 13 13 13 13 13 13 12 12 12 12 12 12 12 12 12 12 12 12 12 12 12 12 12 12 12 12 11 11 11
14 14 14 14 14 14 14 14 14 14 14 13 13 13 13 13 13 13 13 12 12 12 12 12 12 12 12 12 12 12 12 12 12 12 11 11 11 11 11 11 11 11 11
13 14 14 14 14 14 14 14 14 14 13 13 13 13 13 13 12 12 12 12 12 12 12 12 12 12 12 12 11 11 11 11 11 11 11 11 11 11 11 11 11 11 11
13 13 13 13 13 13 13 13 13 13 13 13 13 13 13 13 12 12 12 12 12 12 12 11 11 11 11 11 11 11 11 11 11 11 11 11 11 11 11 11 11 11 11
13 13 13 13 13 13 13 13 13 13 13 13 13 13 12 12 12 12 12 12 12 12 11 11 11 11 11 11 11 11 11 11 11 11 11 11 11 10 10 10 10 10 10
13 13 13 13 13 13 13 13 13 13 13 13 12 12 12 12 12 12 12 11 11 11 11 11 11 11 11 11 11 11 11 10 10 10 10 10 10 10 10 10 10 10 10
13 13 13 13 13 13 13 13 12 12 12 12 12 12 12 12 12 11 11 11 11 11 11 11 10 10 10 10 10 10 10 10 10 10 10 10 10 10 10 10 10 10 10
12 12 12 12 12 12 12 12 12 12 12 12 12 12 11 11 11 11 11 11 11 10 10 10 10 10 10 10 10 10 10 10 10 10 10 10 9 9 9 9 9 9 9
12 12 12 12 12 12 12 12 12 12 11 11 11 11 11 11 11 11 11 10 10 10 10 10 10 10 10 10 10 10 9 9 10 10 9 9 9 9 9 9 9 9 9
Wind_Speed
6 5 4 4 4 3 2 2 2 2 2 2 1 1 1 0 1 1 2 2 2 1 1 0 0 1 2 2 2 1 0 1 1 1 0 2 2 1 2 4 5 7 7
6 5 4 3 3 3 3 2 2 2 2 2 2 1 1 1 1 1 2 1 1 1 1 1 1 1 1 2 2 2 1 1 1 1 0 1 1 2 2 3 3 5 6
7 6 5 5 4 3 3 3 3 2 2 2 2 2 1 1 1 1 1 1 1 1 1 1 1 1 2 2 1 2 2 1 1 1 1 1 1 0 1 2 2 3 5
7 6 5 5 4 3 3 3 3 3 3 3 3 3 2 2 1 1 1 1 1 1 1 1 2 2 2 2 2 1 1 1 1 1 1 1 1 1 1 1 2 2 2
6 6 5 4 3 3 3 3 3 3 4 3 3 3 3 3 2 1 2 2 1 1 2 2 2 2 1 1 1 1 1 1 1 1 1 1 1 0 1 2 2 2 2
4 5 5 4 4 3 3 3 3 3 3 3 3 3 3 3 1 2 2 2 1 2 2 3 3 3 3 3 2 1 1 1 2 2 2 1 1 1 2 2 2 2 2
4 4 4 4 3 3 4 3 3 3 3 3 3 3 3 2 2 3 3 3 2 3 3 3 4 4 3 3 3 4 4 4 3 2 2 2 2 1 2 3 3 3 3
3 3 3 3 3 3 3 2 2 2 3 3 4 4 3 4 4 4 4 4 4 4 3 4 4 3 3 2 3 3 3 4 5 4 3 3 3 2 3 4 4 4 3
3 3 2 2 1 2 2 2 2 2 3 4 3 3 4 4 5 5 4 4 4 4 4 4 4 4 4 5 4 4 4 4 4 4 5 4 5 5 3 3 3 3 3
2 2 2 2 2 2 2 2 2 2 4 4 3 3 4 4 6 6 6 4 4 4 3 2 3 4 5 6 4 4 5 5 4 3 4 6 7 7 7 5 4 3 3
1 1 1 1 2 2 2 2 2 3 4 4 4 4 4 4 5 7 6 4 4 3 3 2 2 4 5 6 6 5 6 5 4 4 4 5 5 4 5 5 4 3 3
0 0 1 1 3 2 2 2 3 4 4 5 5 4 3 3 4 5 6 6 5 3 3 1 2 3 4 6 6 6 7 5 4 4 4 5 4 4 4 4 4 4 4
0 1 1 2 2 2 3 3 3 4 4 4 3 3 3 1 1 3 5 5 5 3 2 2 2 4 5 5 8 8 6 5 5 5 5 5 4 4 3 3 4 4 5
1 1 2 2 2 2 2 3 3 3 3 3 3 3 2 1 0 1 2 3 3 3 2 2 3 5 5 5 4 5 5 5 5 5 5 5 4 4 4 3 4 3 4
2 2 3 3 3 2 2 2 3 2 2 3 3 3 2 2 1 1 2 2 2 2 2 2 2 2 3 4 4 4 5 5 5 5 5 5 4 4 4 4 4 4 4
2 2 3 3 2 2 1 1 1 1 0 1 2 2 1 2 3 1 1 1 1 2 2 3 4 4 4 4 4 4 5 5 5 5 5 5 5 5 4 4 4 4 5
2 3 3 3 3 2 2 2 2 1 1 1 3 3 4 4 3 2 3 2 3 2 2 4 4 3 4 4 4 4 4 4 4 4 4 4 4 5 4 4 4 4 4
3 2 3 3 3 3 3 4 3 3 3 3 3 5 6 6 6 5 4 2 3 3 4 4 3 3 3 3 3 4 3 3 3 3 4 4 4 4 4 4 4 5 4
4 2 2 3 4 3 4 4 4 4 3 3 2 3 5 6 5 5 4 4 5 4 4 4 3 3 3 3 3 3 4 3 3 3 3 3 3 3 4 4 4 5 5
3 3 4 4 4 4 4 4 4 3 3 2 2 2 2 3 3 3 4 4 5 4 3 3 4 3 3 2 3 3 3 3 3 4 3 3 3 4 4 4 4 3 4
4 4 5 5 4 4 4 4 4 4 3 3 2 2 3 3 3 4 4 4 4 4 3 3 3 3 3 3 3 3 3 3 2 3 3 3 3 3 3 3 3 3 3
4 4 4 4 3 3 4 4 4 4 4 3 3 2 5 4 3 4 3 3 3 3 3 3 3 2 2 3 3 2 2 3 3 3 3 3 3 3 3 3 3 3 3
5 5 4 4 4 4 5 4 4 4 4 3 3 2 3 3 3 3 3 3 2 3 3 2 2 2 2 2 2 1 2 3 3 4 4 4 3 3 3 4 4 4 4
6 5 5 4 4 4 4 4 4 4 4 3 3 3 3 3 2 3 2 2 2 2 2 2 2 2 2 1 2 2 2 3 3 3 4 4 4 3 3 3 4 4 4
5 5 4 4 4 4 4 4 4 4 4 3 3 3 2 2 3 2 2 2 3 3 3 2 2 2 1 1 2 3 3 3 3 4 3 3 4 4 3 4 4 3 3
5 5 4 3 3 3 3 3 3 3 3 3 3 3 2 3 2 2 2 2 3 2 1 1 1 1 1 2 2 2 2 3 4 5 4 3 4 4 3 4 4 3 3
Wind_Direction
168 168 173 172 176 180 180 169 161 150 142 138 161 171 184 218 292 253 235 206 220 242 275 226 267 314 315 324 323 316 265 249 252 288 108 135 123 142 157 190 189 180 183
163 158 158 154 172 179 178 173 169 167 173 184 193 202 216 208 226 275 275 234 214 211 223 245 268 279 282 298 319 319 295 235 196 241 303 164 168 167 187 221 198 202 190
163 163 165 170 174 182 181 176 180 184 195 196 192 209 226 238 209 232 314 298 262 235 205 204 222 257 273 274 295 299 309 310 172 194 245 214 180 235 218 241 237 221 213
162 168 169 175 176 176 179 175 182 188 200 204 201 210 211 222 204 226 228 268 265 249 231 214 224 226 241 250 265 272 286 306 282 222 236 232 191 244 222 243 268 251 248
158 162 164 168 174 175 176 180 186 198 204 202 212 221 220 223 225 209 223 241 251 251 241 217 223 216 202 225 255 281 275 261 253 257 249 236 240 189 256 244 251 253 241
152 152 154 164 172 177 185 187 191 198 209 208 220 232 241 248 192 164 200 257 239 238 245 232 220 213 206 204 214 241 230 250 272 267 269 266 271 250 258 268 275 280 267
138 141 153 164 179 190 204 196 202 206 215 223 226 229 232 229 215 201 210 222 247 249 252 245 246 239 206 205 213 226 231 230 230 241 269 281 272 281 278 282 281 278 261
136 141 156 178 185 189 196 208 220 221 224 231 233 227 222 229 216 215 227 220 241 244 238 238 235 241 240 216 228 230 237 239 228 227 239 258 256 265 267 266 274 283 264
147 159 170 174 198 201 199 211 221 232 240 240 233 226 223 227 220 218 223 231 239 246 240 246 232 219 218 213 222 234 240 247 242 225 229 239 242 249 262 285 283 286 282
156 167 169 186 219 228 225 235 243 254 257 252 249 246 237 235 221 210 214 240 242 243 242 232 211 207 218 208 217 233 242 247 251 248 240 243 241 239 235 228 244 264 276
120 132 166 206 241 235 236 248 252 256 260 256 255 253 245 235 222 207 210 234 253 250 247 232 210 205 216 215 218 230 236 247 249 242 242 240 238 235 233 221 221 233 252
128 203 224 236 263 267 245 250 256 258 259 255 252 252 250 235 219 206 209 227 261 267 259 228 203 214 222 221 220 232 242 248 248 245 247 245 240 235 234 218 218 225 230
20 277 259 253 253 261 257 252 249 248 251 252 249 251 257 253 175 178 203 231 247 252 303 338 285 254 242 230 224 230 235 236 235 240 243 243 239 234 221 219 226 229 237
244 257 258 245 240 245 248 253 254 259 262 265 271 263 251 246 195 184 228 233 235 239 275 296 275 256 252 247 239 231 231 237 238 242 250 248 237 232 233 228 231 229 235
253 257 261 262 254 246 254 282 270 301 281 260 269 271 273 254 225 222 216 225 233 234 252 258 264 259 244 236 233 231 233 237 241 244 249 250 241 238 236 229 230 237 239
281 275 276 271 264 254 257 279 8 223 182 182 218 230 241 195 190 203 202 193 225 216 228 248 248 247 246 245 246 241 237 237 238 243 248 249 244 239 238 231 225 231 238
280 283 289 291 279 266 266 262 262 276 257 238 231 211 206 210 204 213 232 247 256 217 230 252 250 252 257 255 256 258 252 240 237 241 246 251 247 238 233 232 231 233 238
276 273 281 286 279 273 272 271 267 254 242 246 235 211 210 219 222 223 218 225 255 231 239 250 253 255 258 254 257 263 263 253 241 247 253 253 250 246 242 235 232 235 235
277 275 283 292 286 278 271 264 264 265 258 241 232 212 214 224 232 231 208 232 248 246 248 252 260 261 265 255 251 258 258 249 249 253 256 259 260 260 251 245 238 232 236
271 269 267 276 280 280 277 276 272 273 267 248 238 236 189 195 227 223 215 234 249 255 253 254 260 264 265 265 265 269 272 265 258 254 254 259 260 259 258 259 252 242 235
276 257 249 261 274 280 286 293 291 284 280 269 254 224 211 230 237 239 233 228 240 259 270 273 270 272 266 266 271 267 270 280 277 274 273 269 267 266 267 263 257 249 244
289 277 262 266 274 282 285 280 280 279 273 268 264 230 210 231 253 257 258 247 241 246 264 270 272 273 275 284 282 287 286 290 293 286 276 272 267 265 265 261 259 246 236
277 279 278 279 275 263 268 275 277 276 270 261 262 263 237 245 256 264 271 269 260 262 264 265 272 285 283 286 296 289 282 287 287 286 286 277 272 269 270 262 254 255 245
283 282 285 285 280 271 267 270 273 273 273 272 266 260 255 258 271 273 276 285 284 279 285 278 261 266 293 317 322 320 316 315 314 302 296 290 285 279 277 275 269 258 250
281 284 283 283 284 284 281 284 288 293 290 288 286 284 281 280 282 282 286 285 296 294 294 295 296 287 278 318 340 343 5 351 334 318 295 279 279 275 277 284 277 267 260
289 293 296 300 296 291 289 287 288 291 293 295 298 292 286 286 288 304 304 293 293 286 289 299 333 353 26 47 33 31 7 332 317 309 288 264 263 267 275 275 275 267 263
Height
1504 1505 1507 1508 1510 1510 1511 1511 1512 1513 1514 1514 1515 1515 1516 1516 1516 1516 1516 1517 1517 1517 1517 1517 1517 1518 1518 1518 1519 1520 1520 1520 1520 1521 1521 1520 1520 1519 1519 1519 1518 1518 1518
1503 1504 1505 1507 1508 1509 1509 1509 1510 1511 1512 1512 1512 1513 1513 1514 1514 1514 1515 1515 1515 1515 1515 1515 1515 1516 1516 1517 1517 1518 1518 1518 1519 1518 1519 1518 1518 1517 1517 1517 1516 1516 1516
1500 1502 1503 1504 1506 1507 1507 1507 1508 1508 1509 1510 1510 1510 1511 1511 1512 1512 1512 1512 1512 1513 1513 1513 1513 1514 1514 1515 1515 1515 1516 1516 1516 1517 1517 1517 1516 1516 1515 1515 1515 1515 1514
1499 1500 1502 1503 1504 1504 1505 1505 1506 1507 1507 1508 1508 1508 1509 1509 1509 1509 1510 1510 1510 1510 1510 1511 1511 1511 1512 1513 1513 1513 1514 1514 1514 1514 1514 1515 1514 1514 1513 1513 1513 1513 1513
1498 1499 1500 1501 1502 1502 1503 1504 1504 1505 1505 1506 1506 1506 1506 1506 1507 1507 1507 1507 1507 1507 1508 1508 1508 1509 1510 1510 1511 1511 1512 1512 1512 1512 1512 1512 1512 1512 1512 1512 1511 1511 1511
1496 1497 1498 1499 1500 1501 1501 1502 1502 1503 1503 1503 1504 1504 1504 1504 1504 1504 1504 1504 1505 1505 1505 1505 1506 1507 1507 1508 1508 1509 1510 1510 1510 1510 1510 1510 1510 1510 1510 1510 1509 1509 1508
1494 1495 1496 1497 1498 1499 1499 1500 1500 1500 1501 1501 1501 1501 1501 1502 1502 1502 1502 1502 1502 1502 1502 1503 1503 1504 1505 1505 1506 1506 1507 1507 1508 1508 1507 1507 1507 1507 1507 1507 1507 1506 1506
1492 1494 1495 1495 1496 1496 1497 1497 1497 1498 1498 1498 1498 1498 1498 1498 1499 1499 1499 1499 1499 1499 1499 1499 1500 1501 1502 1503 1503 1504 1504 1504 1504 1505 1504 1505 1505 1505 1505 1505 1504 1504 1504
1491 1492 1493 1493 1494 1494 1494 1494 1495 1495 1495 1495 1495 1495 1495 1495 1495 1496 1496 1496 1496 1496 1496 1497 1497 1498 1499 1499 1500 1500 1500 1501 1501 1501 1501 1502 1502 1502 1502 1502 1501 1501 1500
1489 1490 1491 1491 1491 1491 1491 1492 1492 1492 1492 1492 1492 1492 1492 1492 1492 1493 1493 1493 1493 1493 1493 1493 1494 1494 1495 1496 1496 1496 1496 1497 1498 1498 1498 1498 1498 1498 1498 1498 1497 1497 1497
1487 1488 1488 1489 1489 1489 1489 1489 1489 1489 1489 1489 1488 1489 1488 1489 1489 1489 1490 1490 1489 1490 1490 1490 1490 1491 1491 1492 1492 1492 1492 1493 1494 1494 1494 1494 1494 1494 1493 1493 1494 1494 1494
1485 1485 1486 1486 1487 1487 1486 1486 1486 1486 1486 1486 1486 1485 1485 1485 1486 1486 1486 1486 1486 1486 1487 1487 1487 1487 1487 1487 1488 1488 1489 1489 1490 1490 1490 1490 1490 1489 1489 1489 1490 1490 1490
1482 1483 1483 1483 1483 1484 1483 1483 1483 1483 1483 1483 1483 1483 1482 1482 1482 1482 1482 1483 1483 1483 1484 1484 1484 1483 1483 1483 1484 1484 1485 1485 1485 1485 1485 1485 1485 1485 1486 1486 1486 1486 1486
1480 1480 1480 1480 1480 1480 1480 1481 1481 1481 1481 1480 1480 1480 1479 1479 1479 1479 1479 1479 1480 1480 1480 1480 1480 1480 1480 1480 1480 1480 1480 1480 1480 1480 1480 1481 1481 1481 1481 1481 1481 1482 1482
1478 1478 1478 1478 1478 1477 1477 1478 1478 1477 1478 1478 1477 1477 1476 1476 1476 1476 1476 1476 1476 1476 1476 1476 1476 1476 1476 1476 1476 1476 1477 1477 1477 1476 1476 1476 1477 1476 1476 1477 1477 1477 1478
1475 1475 1475 1475 1476 1475 1475 1475 1474 1474 1474 1474 1473 1473 1473 1473 1473 1473 1474 1474 1474 1473 1473 1473 1473 1473 1473 1473 1473 1473 1472 1472 1472 1472 1472 1472 1472 1472 1472 1473 1473 1473 1473
1473 1473 1473 1473 1473 1473 1472 1472 1471 1471 1471 1470 1470 1470 1470 1470 1469 1469 1470 1471 1471 1470 1470 1469 1469 1469 1469 1469 1469 1469 1468 1468 1468 1468 1468 1468 1468 1468 1468 1468 1469 1469 1469
1471 1471 1471 1471 1471 1470 1470 1470 1469 1468 1467 1467 1467 1467 1467 1467 1466 1466 1466 1467 1467 1467 1466 1466 1466 1466 1466 1465 1465 1465 1465 1464 1464 1464 1464 1464 1464 1464 1464 1464 1464 1464 1464
1468 1468 1468 1468 1468 1468 1467 1467 1466 1466 1465 1464 1464 1464 1464 1464 1464 1464 1463 1463 1463 1463 1463 1463 1462 1462 1462 1462 1461 1461 1461 1460 1460 1460 1460 1459 1460 1460 1459 1459 1459 1459 1460
1466 1466 1466 1466 1465 1465 1465 1464 1464 1463 1463 1462 1461 1461 1461 1461 1460 1460 1460 1460 1460 1459 1459 1459 1458 1458 1458 1457 1457 1457 1457 1457 1456 1456 1455 1455 1455 1455 1455 1455 1455 1455 1455
1464 1463 1463 1463 1463 1462 1462 1462 1461 1460 1460 1459 1459 1458 1458 1458 1458 1458 1457 1457 1456 1456 1455 1455 1454 1454 1453 1453 1453 1453 1452 1452 1452 1451 1451 1451 1451 1451 1451 1451 1451 1451 1451
1461 1461 1461 1460 1460 1459 1459 1459 1458 1458 1457 1457 1456 1456 1455 1455 1455 1455 1454 1454 1453 1452 1452 1451 1450 1450 1449 1449 1449 1448 1448 1448 1447 1447 1447 1447 1447 1447 1447 1447 1447 1447 1447
1459 1458 1458 1457 1457 1456 1456 1455 1455 1455 1454 1454 1453 1453 1453 1452 1452 1452 1451 1451 1450 1449 1448 1448 1447 1446 1446 1445 1445 1444 1444 1443 1443 1442 1442 1442 1442 1442 1442 1443 1442 1442 1443
1456 1455 1455 1454 1454 1453 1453 1452 1452 1452 1451 1451 1450 1449 1449 1449 1449 1448 1448 1447 1446 1446 1445 1444 1444 1442 1442 1441 1441 1440 1440 1439 1438 1438 1437 1438 1437 1437 1438 1438 1438 1438 1438
1453 1453 1452 1451 1451 1450 1450 1449 1448 1448 1447 1447 1447 1446 1446 1446 1445 1445 1445 1444 1443 1442 1442 1441 1440 1439 1438 1437 1436 1436 1436 1435 1434 1434 1433 1433 1433 1433 1433 1434 1434 1434 1435
1451 1450 1449 1449 1448 1447 1446 1446 1445 1444 1444 1443 1443 1443 1442 1442 1442 1442 1441 1441 1440 1439 1438 1437 1436 1436 1435 1434 1433 1432 1431 1431 1430 1430 1429 1429 1429 1429 1429 1430 1430 1430 1431